Location: Unspecified
(0.0000°N, 0.0000°E)
Time: 11:23:52
(UTC+00:00)

Vanguard 1 Rocket - Pass Details

Date: 28 November 2019
Orbit: 650 x 4226 km, 34.3° (Epoch: 13 December)

Event Time Altitude Azimuth Distance (km) Brightness Sun altitude
Rises 18:08:03 0° 226° (SW) 8,426 13.8 -4.7°
Reaches altitude 10° 18:14:34 10° 220° (SW) 7,434 13.1 -6.2°
Maximum altitude 18:38:37 48° 151° (SSE) 4,107 10.6 -11.8°
Enters shadow 18:52:01 15° 85° (E) 4,671 10.4 -14.9°
